WMT102 LRCL-EDJA

Flight info

Callsign WMT102
Flight time 1h 28m
Altitude 38000
Route ELROM DCT DEGET DCT GOTAR DCT ERKIR L608 KPT
Aircraft A320/M-SDE3FGHIRWY/LB1

Departure

Time 2026-04-22 08:59
Airport Avram Iancu Cluj International Airport (LRCL)

Arrival

Time 2026-04-22 10:28
Airport Memmingen Allgau Airport (EDJA)
Time Latitude Longitude Altitude Speed Heading
2026-04-22 08:29 46.78527 23.69430 1032 ft 0 kts 72°
2026-04-22 08:51 46.78524 23.69418 1031 ft 2 kts 72°
2026-04-22 08:51 46.78519 23.69397 1031 ft 2 kts 72°
2026-04-22 08:51 46.78516 23.69384 1031 ft 2 kts 73°
2026-04-22 08:51 46.78508 23.69366 1031 ft 2 kts 31°
2026-04-22 08:52 46.78493 23.69359 1031 ft 2 kts 356°
2026-04-22 08:52 46.78486 23.69361 1031 ft 1 kts 337°
2026-04-22 08:52 46.78482 23.69364 1031 ft 0 kts 341°
2026-04-22 08:54 46.78483 23.69363 1031 ft 1 kts 341°
2026-04-22 08:54 46.78521 23.69346 1031 ft 9 kts 342°
2026-04-22 08:55 46.78593 23.69312 1031 ft 11 kts 342°
2026-04-22 08:55 46.78669 23.69275 1031 ft 11 kts 342°
2026-04-22 08:55 46.78749 23.69237 1031 ft 12 kts 342°
2026-04-22 08:55 46.78830 23.69198 1031 ft 12 kts 341°
2026-04-22 08:56 46.78905 23.69195 1031 ft 11 kts 36°
2026-04-22 08:56 46.78941 23.69297 1031 ft 11 kts 71°
2026-04-22 08:56 46.78968 23.69415 1031 ft 12 kts 72°
2026-04-22 08:56 46.78984 23.69530 1031 ft 9 kts 85°
2026-04-22 08:57 46.78997 23.69615 1031 ft 5 kts 73°
2026-04-22 08:57 46.79012 23.69614 1031 ft 4 kts 278°
2026-04-22 08:57 46.79004 23.69577 1031 ft 0 kts 252°
2026-04-22 08:58 46.78995 23.69539 1031 ft 26 kts 252°
2026-04-22 08:58 46.78838 23.68842 1032 ft 114 kts 252°
2026-04-22 08:59 46.78528 23.67468 1296 ft 158 kts 253°
2026-04-22 08:59 46.78189 23.65991 2145 ft 157 kts 254°
2026-04-22 08:59 46.77858 23.64535 2883 ft 153 kts 255°
2026-04-22 08:59 46.77530 23.63065 3485 ft 155 kts 255°
2026-04-22 09:00 46.77196 23.61579 4087 ft 156 kts 255°
2026-04-22 09:00 46.76850 23.60048 4567 ft 168 kts 255°
2026-04-22 09:00 46.76471 23.58358 5012 ft 184 kts 254°
2026-04-22 09:00 46.76055 23.56515 5477 ft 201 kts 254°
2026-04-22 09:01 46.75652 23.54489 5893 ft 221 kts 261°
2026-04-22 09:01 46.75461 23.52159 6393 ft 240 kts 269°
2026-04-22 09:01 46.75393 23.49655 6961 ft 258 kts 271°
2026-04-22 09:01 46.75339 23.46978 7555 ft 274 kts 271°
2026-04-22 09:02 46.75281 23.44157 8400 ft 281 kts 271°
2026-04-22 09:02 46.75216 23.41358 9304 ft 283 kts 270°
2026-04-22 09:02 46.75145 23.38491 10165 ft 286 kts 270°
2026-04-22 09:02 46.75072 23.35561 10827 ft 296 kts 270°
2026-04-22 09:03 46.74995 23.32525 11240 ft 313 kts 269°
2026-04-22 09:03 46.74910 23.29246 11591 ft 331 kts 269°
2026-04-22 09:03 46.74819 23.25808 11955 ft 347 kts 269°
2026-04-22 09:03 46.74722 23.22258 12578 ft 354 kts 269°
2026-04-22 09:04 46.74620 23.18633 13312 ft 357 kts 270°
2026-04-22 09:04 46.74519 23.15035 14010 ft 360 kts 270°
2026-04-22 09:04 46.74417 23.11367 14688 ft 363 kts 270°
2026-04-22 09:04 46.74314 23.07723 15343 ft 366 kts 270°
2026-04-22 09:05 46.74139 23.04008 15989 ft 370 kts 266°
2026-04-22 09:05 46.73795 23.00279 16622 ft 374 kts 263°
2026-04-22 09:05 46.73313 22.96521 17246 ft 377 kts 261°
2026-04-22 09:05 46.72816 22.92789 17837 ft 380 kts 261°
2026-04-22 09:06 46.72310 22.89029 18415 ft 383 kts 261°
2026-04-22 09:06 46.71795 22.85202 18984 ft 386 kts 261°
2026-04-22 09:06 46.71276 22.81349 19535 ft 389 kts 261°
2026-04-22 09:06 46.70759 22.77519 20068 ft 392 kts 261°
2026-04-22 09:07 46.70230 22.73604 20590 ft 395 kts 261°
2026-04-22 09:07 46.69695 22.69660 21092 ft 398 kts 261°
2026-04-22 09:07 46.69163 22.65739 21577 ft 401 kts 261°
2026-04-22 09:07 46.68617 22.61727 22066 ft 404 kts 261°
2026-04-22 09:08 46.68073 22.57749 22536 ft 406 kts 261°
2026-04-22 09:08 46.67520 22.53700 23000 ft 409 kts 261°
2026-04-22 09:08 46.66964 22.49654 23447 ft 411 kts 261°
2026-04-22 09:08 46.66398 22.45538 23882 ft 414 kts 261°
2026-04-22 09:09 46.65831 22.41426 24313 ft 417 kts 261°
2026-04-22 09:09 46.65257 22.37279 24722 ft 419 kts 261°
2026-04-22 09:09 46.64681 22.33122 25108 ft 422 kts 261°
2026-04-22 09:09 46.64097 22.28912 25480 ft 425 kts 260°
2026-04-22 09:10 46.63509 22.24703 25853 ft 427 kts 260°
2026-04-22 09:10 46.62917 22.20475 26207 ft 430 kts 260°
2026-04-22 09:10 46.62322 22.16227 26555 ft 433 kts 260°
2026-04-22 09:10 46.61716 22.11925 26900 ft 435 kts 260°
2026-04-22 09:11 46.61103 22.07592 27240 ft 437 kts 260°
2026-04-22 09:11 46.60494 22.03290 27614 ft 438 kts 260°
2026-04-22 09:11 46.59884 21.98996 28079 ft 437 kts 260°
2026-04-22 09:11 46.59268 21.94675 28569 ft 435 kts 260°
2026-04-22 09:12 46.58658 21.90392 29016 ft 434 kts 261°
2026-04-22 09:12 46.58411 21.86103 29350 ft 430 kts 277°
2026-04-22 09:12 46.58821 21.81815 29789 ft 428 kts 280°
2026-04-22 09:12 46.59242 21.77522 30191 ft 428 kts 280°
2026-04-22 09:13 46.59648 21.73292 30572 ft 428 kts 279°
2026-04-22 09:13 46.60061 21.68980 30966 ft 428 kts 279°
2026-04-22 09:13 46.60463 21.64777 31495 ft 420 kts 279°
2026-04-22 09:13 46.60856 21.60667 32065 ft 410 kts 279°
2026-04-22 09:14 46.61248 21.56562 32425 ft 407 kts 280°
2026-04-22 09:14 46.61638 21.52479 32652 ft 409 kts 280°
2026-04-22 09:14 46.62025 21.48426 32864 ft 410 kts 280°
2026-04-22 09:14 46.62416 21.44316 33076 ft 412 kts 280°
2026-04-22 09:15 46.62804 21.40224 33290 ft 413 kts 280°
2026-04-22 09:15 46.63199 21.36049 33489 ft 415 kts 280°
2026-04-22 09:15 46.63586 21.31931 33686 ft 416 kts 279°
2026-04-22 09:15 46.63983 21.27697 33889 ft 417 kts 279°
2026-04-22 09:16 46.64370 21.23543 34106 ft 419 kts 279°
2026-04-22 09:16 46.64757 21.19375 34319 ft 421 kts 279°
2026-04-22 09:16 46.65151 21.15125 34542 ft 422 kts 279°
2026-04-22 09:16 46.65536 21.10942 34772 ft 424 kts 279°
2026-04-22 09:17 46.65928 21.06659 35024 ft 424 kts 279°
2026-04-22 09:17 46.66313 21.02456 35318 ft 422 kts 279°
2026-04-22 09:17 46.66695 20.98249 35606 ft 421 kts 279°
2026-04-22 09:17 46.67079 20.94002 35867 ft 421 kts 279°
2026-04-22 09:18 46.67459 20.89791 36115 ft 420 kts 279°
2026-04-22 09:18 46.67834 20.85626 36341 ft 420 kts 279°
2026-04-22 09:18 46.68213 20.81388 36540 ft 421 kts 279°
2026-04-22 09:18 46.68588 20.77178 36714 ft 423 kts 279°
2026-04-22 09:19 46.68961 20.72971 36879 ft 424 kts 279°
2026-04-22 09:19 46.69338 20.68698 37068 ft 424 kts 279°
2026-04-22 09:19 46.69708 20.64488 37243 ft 425 kts 279°
2026-04-22 09:19 46.70083 20.60213 37425 ft 426 kts 279°
2026-04-22 09:20 46.70456 20.55930 37577 ft 427 kts 279°
2026-04-22 09:20 46.70823 20.51689 37718 ft 428 kts 279°
2026-04-22 09:20 46.71197 20.47360 37875 ft 429 kts 279°
2026-04-22 09:20 46.71564 20.43083 38020 ft 430 kts 279°
2026-04-22 09:21 46.71933 20.38788 38107 ft 431 kts 279°
2026-04-22 09:21 46.72669 20.30131 38114 ft 432 kts 278°
2026-04-22 09:22 46.73403 20.21422 38118 ft 432 kts 278°
2026-04-22 09:22 46.74123 20.12797 38120 ft 432 kts 278°
2026-04-22 09:23 46.74842 20.04112 38130 ft 432 kts 278°
2026-04-22 09:23 46.75554 19.95411 38130 ft 431 kts 278°
2026-04-22 09:24 46.76254 19.86787 38132 ft 431 kts 278°
2026-04-22 09:24 46.76952 19.78100 38133 ft 432 kts 278°
2026-04-22 09:25 46.77642 19.69447 38134 ft 432 kts 278°
2026-04-22 09:25 46.78325 19.60771 38137 ft 432 kts 278°
2026-04-22 09:26 46.79004 19.52070 38135 ft 432 kts 279°
2026-04-22 09:26 46.79676 19.43386 38136 ft 432 kts 278°
2026-04-22 09:27 46.80336 19.34764 38136 ft 431 kts 278°
2026-04-22 09:27 46.80995 19.26070 38141 ft 431 kts 278°
2026-04-22 09:28 46.81641 19.17439 38148 ft 431 kts 278°
2026-04-22 09:28 46.82287 19.08729 38146 ft 432 kts 278°
2026-04-22 09:29 46.82923 19.00053 38145 ft 432 kts 278°
2026-04-22 09:29 46.83557 18.91350 38139 ft 431 kts 278°
2026-04-22 09:30 46.84178 18.82704 38139 ft 431 kts 278°
2026-04-22 09:30 46.84795 18.74034 38146 ft 430 kts 278°
2026-04-22 09:31 46.85405 18.65359 38150 ft 431 kts 278°
2026-04-22 09:31 46.86008 18.56675 38156 ft 431 kts 278°
2026-04-22 09:32 46.86606 18.47987 38157 ft 432 kts 278°
2026-04-22 09:32 46.87199 18.39277 38159 ft 432 kts 278°
2026-04-22 09:33 46.87785 18.30568 38164 ft 432 kts 277°
2026-04-22 09:33 46.88369 18.21782 38164 ft 432 kts 278°
2026-04-22 09:34 46.88939 18.13092 38160 ft 432 kts 278°
2026-04-22 09:34 46.89506 18.04364 38165 ft 431 kts 278°
2026-04-22 09:35 46.90341 17.91318 38172 ft 431 kts 278°
2026-04-22 09:35 46.90889 17.82614 38167 ft 431 kts 278°
2026-04-22 09:36 46.91430 17.73914 38171 ft 432 kts 278°
2026-04-22 09:36 46.91963 17.65235 38174 ft 432 kts 278°
2026-04-22 09:37 46.92492 17.56516 38174 ft 432 kts 278°
2026-04-22 09:37 46.93016 17.47805 38173 ft 432 kts 278°
2026-04-22 09:38 46.93532 17.39074 38175 ft 432 kts 278°
2026-04-22 09:38 46.94032 17.30509 38182 ft 432 kts 277°
2026-04-22 09:39 46.94534 17.21787 38181 ft 431 kts 277°
2026-04-22 09:39 46.95028 17.13085 38183 ft 431 kts 277°
2026-04-22 09:40 46.95518 17.04384 38184 ft 431 kts 277°
2026-04-22 09:40 46.96004 16.95622 38182 ft 432 kts 277°
2026-04-22 09:41 46.96478 16.86919 38183 ft 432 kts 277°
2026-04-22 09:41 46.96948 16.78170 38186 ft 432 kts 277°
2026-04-22 09:42 46.97410 16.69430 38184 ft 432 kts 277°
2026-04-22 09:42 46.98143 16.60747 38186 ft 429 kts 284°
2026-04-22 09:43 46.99375 16.52255 38184 ft 429 kts 285°
2026-04-22 09:43 47.00612 16.43720 38185 ft 429 kts 285°
2026-04-22 09:44 47.01824 16.35180 38184 ft 429 kts 285°
2026-04-22 09:44 47.02992 16.26843 38183 ft 429 kts 284°
2026-04-22 09:45 47.04171 16.18348 38183 ft 429 kts 284°
2026-04-22 09:45 47.05353 16.09771 38183 ft 429 kts 284°
2026-04-22 09:46 47.06520 16.01266 38182 ft 429 kts 284°
2026-04-22 09:46 47.07690 15.92669 38182 ft 428 kts 284°
2026-04-22 09:47 47.08850 15.84110 38188 ft 429 kts 284°
2026-04-22 09:47 47.10001 15.75554 38184 ft 430 kts 284°
2026-04-22 09:48 47.11153 15.66954 38187 ft 430 kts 284°
2026-04-22 09:48 47.12299 15.58340 38193 ft 429 kts 284°
2026-04-22 09:49 47.13427 15.49808 38194 ft 429 kts 284°
2026-04-22 09:49 47.14557 15.41218 38198 ft 429 kts 284°
2026-04-22 09:50 47.15674 15.32659 38197 ft 429 kts 283°
2026-04-22 09:50 47.16795 15.24016 38194 ft 428 kts 283°
2026-04-22 09:51 47.17898 15.15471 38189 ft 429 kts 283°
2026-04-22 09:51 47.19001 15.06859 38173 ft 429 kts 284°
2026-04-22 09:52 47.20097 14.98268 38151 ft 429 kts 284°
2026-04-22 09:52 47.21189 14.89643 38161 ft 429 kts 283°
2026-04-22 09:53 47.22270 14.81045 38176 ft 430 kts 284°
2026-04-22 09:53 47.23346 14.72425 38179 ft 429 kts 284°
2026-04-22 09:54 47.24414 14.63831 38190 ft 429 kts 284°
2026-04-22 09:54 47.25476 14.55220 38186 ft 429 kts 284°
2026-04-22 09:55 47.26537 14.46575 38185 ft 429 kts 284°
2026-04-22 09:55 47.27583 14.37978 38168 ft 429 kts 284°
2026-04-22 09:56 47.28630 14.29330 38158 ft 429 kts 283°
2026-04-22 09:56 47.29665 14.20722 38134 ft 429 kts 283°
2026-04-22 09:57 47.30693 14.12104 38107 ft 429 kts 283°
2026-04-22 09:57 47.31717 14.03456 38069 ft 428 kts 283°
2026-04-22 09:58 47.32737 13.94804 38062 ft 428 kts 283°
2026-04-22 09:58 47.33742 13.86219 38058 ft 428 kts 283°
2026-04-22 09:59 47.34751 13.77547 38067 ft 428 kts 283°
2026-04-22 09:59 47.35747 13.68915 38078 ft 429 kts 283°
2026-04-22 10:00 47.36739 13.60253 38093 ft 429 kts 283°
2026-04-22 10:00 47.37717 13.51652 38111 ft 429 kts 283°
2026-04-22 10:01 47.38702 13.42942 38120 ft 429 kts 283°
2026-04-22 10:01 47.39674 13.34287 38107 ft 428 kts 283°
2026-04-22 10:02 47.40636 13.25649 38083 ft 429 kts 283°
2026-04-22 10:02 47.41605 13.16891 38081 ft 429 kts 283°
2026-04-22 10:03 47.42553 13.08257 38108 ft 429 kts 283°
2026-04-22 10:03 47.43499 12.99586 38139 ft 429 kts 283°
2026-04-22 10:04 47.44437 12.90926 38160 ft 429 kts 283°
2026-04-22 10:04 47.45373 12.82213 38168 ft 428 kts 283°
2026-04-22 10:05 47.46293 12.73592 38174 ft 428 kts 283°
2026-04-22 10:05 47.47214 12.64898 38187 ft 428 kts 283°
2026-04-22 10:06 47.48121 12.56258 38202 ft 428 kts 283°
2026-04-22 10:06 47.49027 12.47573 38214 ft 428 kts 283°
2026-04-22 10:07 47.49922 12.38921 38027 ft 430 kts 283°
2026-04-22 10:07 47.50370 12.34564 37716 ft 430 kts 282°
2026-04-22 10:07 47.50818 12.30177 37285 ft 430 kts 282°
2026-04-22 10:08 47.51247 12.25976 36733 ft 431 kts 282°
2026-04-22 10:08 47.51692 12.21609 36145 ft 431 kts 282°
2026-04-22 10:08 47.52135 12.17236 35503 ft 433 kts 282°
2026-04-22 10:08 47.52579 12.12838 34865 ft 434 kts 282°
2026-04-22 10:09 47.53018 12.08459 34237 ft 435 kts 282°
2026-04-22 10:09 47.53458 12.04061 33631 ft 436 kts 282°
2026-04-22 10:09 47.53959 11.99638 32969 ft 438 kts 285°
2026-04-22 10:09 47.54571 11.95205 32251 ft 442 kts 285°
2026-04-22 10:10 47.55196 11.90779 31424 ft 444 kts 286°
2026-04-22 10:10 47.55823 11.86331 30594 ft 446 kts 285°
2026-04-22 10:10 47.56455 11.81844 29792 ft 446 kts 286°
2026-04-22 10:10 47.57077 11.77399 28988 ft 446 kts 285°
2026-04-22 10:11 47.57702 11.72918 28173 ft 446 kts 285°
2026-04-22 10:11 47.58326 11.68413 27331 ft 448 kts 285°
2026-04-22 10:11 47.58941 11.63965 26452 ft 449 kts 285°
2026-04-22 10:11 47.59564 11.59443 25507 ft 452 kts 285°
2026-04-22 10:12 47.60193 11.54859 24508 ft 454 kts 285°
2026-04-22 10:12 47.60822 11.50262 23557 ft 453 kts 285°
2026-04-22 10:12 47.61430 11.45792 22925 ft 445 kts 285°
2026-04-22 10:12 47.62036 11.41319 22329 ft 439 kts 285°
2026-04-22 10:13 47.62616 11.36898 21681 ft 435 kts 284°
2026-04-22 10:13 47.63148 11.32573 21029 ft 431 kts 283°
2026-04-22 10:13 47.63646 11.28448 20427 ft 427 kts 283°
2026-04-22 10:13 47.64165 11.24114 19783 ft 423 kts 283°
2026-04-22 10:14 47.64656 11.20022 19174 ft 419 kts 283°
2026-04-22 10:14 47.65164 11.15794 18583 ft 415 kts 283°
2026-04-22 10:14 47.65669 11.11577 17929 ft 412 kts 283°
2026-04-22 10:14 47.66161 11.07456 17298 ft 409 kts 283°
2026-04-22 10:15 47.66658 11.03288 16661 ft 407 kts 283°
2026-04-22 10:15 47.67147 10.99172 16012 ft 404 kts 282°
2026-04-22 10:15 47.67629 10.95113 15372 ft 402 kts 282°
2026-04-22 10:15 47.68109 10.91038 14733 ft 399 kts 282°
2026-04-22 10:16 47.68582 10.87037 14118 ft 396 kts 282°
2026-04-22 10:16 47.69054 10.83010 13481 ft 394 kts 282°
2026-04-22 10:16 47.69523 10.79018 12827 ft 392 kts 282°
2026-04-22 10:16 47.69986 10.75046 12196 ft 389 kts 282°
2026-04-22 10:17 47.70438 10.71148 11790 ft 380 kts 282°
2026-04-22 10:17 47.70878 10.67350 11473 ft 368 kts 282°
2026-04-22 10:17 47.71302 10.63665 11208 ft 358 kts 282°
2026-04-22 10:17 47.71713 10.60095 10945 ft 348 kts 282°
2026-04-22 10:18 47.72118 10.56570 10646 ft 339 kts 282°
2026-04-22 10:18 47.72506 10.53179 10450 ft 329 kts 282°
2026-04-22 10:18 47.72883 10.49872 10309 ft 317 kts 282°
2026-04-22 10:18 47.73239 10.46745 10170 ft 307 kts 282°
2026-04-22 10:19 47.73595 10.43616 9795 ft 306 kts 282°
2026-04-22 10:19 47.73946 10.40533 9462 ft 304 kts 282°
2026-04-22 10:19 47.74295 10.37459 9159 ft 300 kts 282°
2026-04-22 10:19 47.74768 10.34450 8711 ft 301 kts 288°
2026-04-22 10:20 47.75430 10.31636 8375 ft 298 kts 293°
2026-04-22 10:20 47.76141 10.28933 8022 ft 294 kts 294°
2026-04-22 10:20 47.76877 10.26184 7616 ft 291 kts 294°
2026-04-22 10:20 47.77609 10.23440 7244 ft 289 kts 294°
2026-04-22 10:21 47.78345 10.20660 6896 ft 289 kts 294°
2026-04-22 10:21 47.79081 10.17866 6533 ft 289 kts 293°
2026-04-22 10:21 47.79805 10.15109 6172 ft 289 kts 293°
2026-04-22 10:21 47.80535 10.12319 5811 ft 289 kts 293°
2026-04-22 10:22 47.81374 10.09617 5442 ft 286 kts 308°
2026-04-22 10:22 47.82786 10.07714 5337 ft 268 kts 332°
2026-04-22 10:22 47.84356 10.06338 5266 ft 253 kts 335°
2026-04-22 10:22 47.85851 10.05068 5155 ft 239 kts 335°
2026-04-22 10:23 47.87240 10.03877 5044 ft 227 kts 335°
2026-04-22 10:23 47.88615 10.02960 4923 ft 207 kts 359°
2026-04-22 10:23 47.89928 10.03268 4877 ft 181 kts 33°
2026-04-22 10:23 47.90873 10.04412 4893 ft 173 kts 51°
2026-04-22 10:24 47.91601 10.05816 4663 ft 169 kts 58°
2026-04-22 10:24 47.92252 10.07264 4432 ft 168 kts 60°
2026-04-22 10:24 47.92844 10.08690 4194 ft 156 kts 60°
2026-04-22 10:24 47.93374 10.10012 3989 ft 143 kts 63°
2026-04-22 10:25 47.93862 10.11253 3782 ft 132 kts 60°
2026-04-22 10:25 47.94321 10.12415 3618 ft 130 kts 62°
2026-04-22 10:25 47.94777 10.13580 3466 ft 130 kts 60°
2026-04-22 10:25 47.95231 10.14737 3298 ft 130 kts 63°
2026-04-22 10:26 47.95694 10.15899 3121 ft 129 kts 60°
2026-04-22 10:26 47.96147 10.17031 2937 ft 128 kts 61°
2026-04-22 10:26 47.96602 10.18179 2762 ft 128 kts 59°
2026-04-22 10:26 47.97050 10.19333 2590 ft 128 kts 58°
2026-04-22 10:27 47.97495 10.20462 2426 ft 127 kts 59°
2026-04-22 10:27 47.97950 10.21606 2249 ft 126 kts 61°
2026-04-22 10:27 47.98397 10.22733 2097 ft 125 kts 58°
2026-04-22 10:27 47.98801 10.23749 2073 ft 92 kts 59°
2026-04-22 10:28 47.99040 10.24351 2068 ft 42 kts 59°
2026-04-22 10:28 47.99107 10.24544 2066 ft 10 kts 79°
2026-04-22 10:28 47.99119 10.24546 2066 ft 6 kts 246°
2026-04-22 10:28 47.99083 10.24456 2067 ft 12 kts 239°
2026-04-22 10:29 47.99025 10.24312 2068 ft 20 kts 239°
2026-04-22 10:29 47.98938 10.24093 2071 ft 28 kts 239°
2026-04-22 10:29 47.98839 10.23844 2073 ft 27 kts 239°
2026-04-22 10:29 47.98747 10.23612 2075 ft 24 kts 239°
2026-04-22 10:30 47.98662 10.23399 2076 ft 22 kts 239°
2026-04-22 10:30 47.98593 10.23226 2077 ft 14 kts 239°
2026-04-22 10:30 47.98560 10.23113 2078 ft 9 kts 281°
2026-04-22 10:30 47.98608 10.23052 2078 ft 8 kts 330°
2026-04-22 10:31 47.98661 10.23006 2078 ft 8 kts 329°
2026-04-22 10:31 47.98709 10.22959 2078 ft 7 kts 306°
2026-04-22 10:31 47.98713 10.22886 2078 ft 7 kts 281°
2026-04-22 10:31 47.98747 10.22862 2078 ft 5 kts 34°
2026-04-22 10:32 47.98760 10.22887 2078 ft 1 kts 52°
2026-04-22 10:32 47.98761 10.22888 2078 ft 0 kts 52°